User: anonymous   Login
Location: Unnamed
(47.6264°N, 122.3366°W)
Time: 14:24:04
(UTC-07:00)
Language:

ELYUSIUM/LOWER FREE FLYE - Orbit

View from above orbital plane
View from above orbital plane
View from above satellite
View from above satellite

Ground track
Ground track

The orbit data is extracted from the following two-line orbital elements,

1 43760U 18099C   23081.16453811  .00015945  00000-0  11638-2 0  9995
2 43760  97.5767 148.7318 0009781  49.0510 311.1561 15.03727356234768
Epoch (UTC): 22 March 2023 03:56:56
Eccentricity: 0.0009781
inclination: 97.5767°
perigee height: 548 km
apogee height: 562 km
right ascension of ascending node: 148.7318°
argument of perigee: 49.0510°
revolutions per day: 15.03727356
mean anomaly at epoch: 311.1561°
orbit number at epoch: 23476

The dashed part of the orbit path shows where the satellite is in the earth's shadow,  

DLR